Regional Weather Roundup
Issued by NWS Columbia, SC

Home | Current Version | Previous Version | Text Only | Print | Product List | Glossary On
Versions: 1 2 3 4 5 6 7 8 9 10 11 12 13 14 15 16 17 18 19 20 21 22 23 24 25 26 27 28 29 30 31 32 33 34 35 36 37 38 39 40 41 42 43 44 45 46 47 48 49 50
000
ASUS42 KCAE 262310
RWRCAE
REGIONAL WEATHER ROUNDUP
NATIONAL WEATHER SERVICE COLUMBIA SC
700 PM EDT MON SEP 26 2016

NOTE: "FAIR" INDICATES FEW OR NO CLOUDS BELOW 12,000 FEET WITH NO
SIGNIFICANT WEATHER AND/OR OBSTRUCTIONS TO VISIBILITY.

NOT ALL STATIONS ARE QUALITY CONTROLLED BY THE NATIONAL
WEATHER SERVICE. USE DATA WITH CAUTION...ESPECIALLY
DEWPOINT OBSERVATIONS.

SCZ001>056-GAZ040-063>065-077-270000-
...UPSTATE SOUTH CAROLINA...

CITY           SKY/WX    TMP DP  RH WIND       PRES   REMARKS
ANDERSON       CLEAR     84  63  49 S5        30.01R
LIBERTY        CLEAR     81  65  58 S5        30.01R
SPARTANBURG    CLEAR     81  63  54 S3        30.01R
CLEMSON        PTCLDY    85  65  51 S3        30.03R
GREENVILLE     CLEAR     84  64  50 S6        30.02R
GREENWOOD      CLEAR     82  65  56 S7        30.03R
GREER          CLEAR     82  64  54 S8        30.00R
ROCK HILL      PTCLDY    80  69  69 S3        30.03R
CHESTER        PTCLDY    79  64  61 S5        30.03R HAZE
LAURENS        CLEAR     81  68  65 S5        30.02R


...CENTRAL SOUTH CAROLINA...

CITY           SKY/WX    TMP DP  RH WIND       PRES   REMARKS
COLUMBIA APT   PTCLDY    81  71  71 S6        30.00R
COLUMBIA OWENS CLEAR     81  70  69 S5        30.02R
MCENTIRE ANGB  PTCLDY    78  71  78 SE5       30.02R
ORANGEBURG     CLOUDY    78  71  79 SE3       30.02R
SUMTER SHAW    MOCLDY    75  68  78 S7        30.00R
NEWBERRY       CLEAR     81  70  69 CALM      30.05R
AIKEN          FAIR      77  68  73 SE7       30.05R
MANNING        LGT RAIN  72  70  94 CALM      30.02R
LANCASTER      CLEAR     81  68  65 SE3       30.02R
WINNSBORO      CLEAR     77  70  78 CALM      30.02R


...EASTERN AND COASTAL SOUTH CAROLINA...

CITY           SKY/WX    TMP DP  RH WIND       PRES   REMARKS
MYRTLE BEACH   PTCLDY    79  64  61 SE9       30.04R
N MYRTLE BCH   PTCLDY    79  70  74 E7        30.02S
CONWAY         MOCLDY    75  70  83 CALM      30.03S
MARION         FAIR      75  70  83 SE3       30.02S
HARTSVILLE     FAIR      77  70  78 SE3       30.01S
FLORENCE       CLOUDY    79  71  76 S7        30.02R
DARLINGTON     PTCLDY    77  72  84 SE5       30.02S
CHARLESTON APT LGT RAIN  77  72  84 E3        30.00S
MOUNT PLEASANT FAIR      79  73  83 CALM      30.01R
WALTERBORO     CLOUDY    77  77 100 CALM      30.03R
BEAUFORT       CLOUDY    75  70  84 N6        30.02R


...EASTERN GEORGIA...

CITY           SKY/WX    TMP DP  RH WIND       PRES   REMARKS
AUGUSTA BUSH F PTCLDY    78  69  73 S8        30.01R
AUGUSTA DANIEL PTCLDY    81  68  64 SE7       30.02R
THOMSON        MOCLDY    83  72  68 SW5       30.06R
WASHINGTON     FAIR      82  70  65 S7        30.01R
CLAXTON        FAIR      79  73  81 NE3       30.00R
STATESBORO     PTCLDY    78  72  80 CALM      30.02R
SAVANNAH       MOCLDY    79  68  69 E3        30.01R


...SOUTHERN NORTH CAROLINA...

CITY           SKY/WX    TMP DP  RH WIND       PRES   REMARKS
CHARLOTTE      MOCLDY    80  67  64 S8        30.02R
MONROE         MOCLDY    79  67  66 VRB3      30.02R
WADESBORO      RAIN      79  70  73 E3        30.02R
RUTHERFORDTON  LGT RAIN  73  68  84 E10G17    30.03R
ASHEVILLE      HVY RAIN  66  63  90 W5        30.13R FOG

$$



USA.gov is the U.S. government's official web portal to all federal, state and local government web resources and services.